Back to catalog

FENGYUN 1C DEB

AliveSSO
NORAD 31902·DEBRIS·🇨🇳 China

Launched May 10, 1999 from Taiyuan Satellite Launch Center

Loading…

Next Passes (next 24 hours)

TLE

FreshSource: Space-Track

Epoch: Sep 14, 2026, 09:52 UTC

1 31902U 99025CLD 26257.41169811  .00000510  00000-0  20502-3 0  9991
2 31902  98.5370 233.8695 0180733  65.9795  84.4772 14.23667157687137

Track FENGYUN 1C DEB in real time with AllMySat

Download on the App Store